Simultaneous Nadir Overpasses (SNOs) Predictions

Prediction of SNOs between AQUA and NOAA-19 Satellite Orbit:

Table of predicted SNOs for the next 14.0 days since TLE Epoch: 10/16/2015
Index Date (AQUA) Time (AQUA) Lat,Lon (AQUA) SZA (AQUA ) Date (NOAA-19) Time (NOAA-19) Lat,Lon (NOAA-19) SZA (NOAA-19 ) Distance(km) Time Diff (sec)
1 10/17/2015 05:52:20 -80.52,-123.39 89.00 10/17/2015 05:51:18 -80.51,-123.32 88.99 1.40 62
2 10/17/2015 06:41:45 80.45, 44.92 90.90 10/17/2015 06:42:22 80.46, 44.84 90.90 1.57 37
3 10/19/2015 11:26:07 80.51, -26.79 91.79 10/19/2015 11:25:40 80.51, -26.90 91.81 1.96 27
4 10/19/2015 12:15:31 -80.45, 141.51 88.31 10/19/2015 12:16:32 -80.44, 141.59 88.35 1.81 61
5 10/21/2015 16:59:52 -80.49, 70.05 87.47 10/21/2015 16:59:49 -80.48, 70.16 87.48 2.16 3
6 10/23/2015 21:44:13 -80.53, -1.50 86.63 10/23/2015 21:43:07 -80.54, -1.64 86.58 2.90 66
7 10/23/2015 22:33:38 80.47, 166.77 93.28 10/23/2015 22:34:10 80.47, 166.82 93.27 0.92 32
8 10/26/2015 03:17:59 80.52, 95.13 94.13 10/26/2015 03:17:27 80.51, 95.27 94.12 2.80 32
9 10/26/2015 04:07:23 -80.45, -96.52 85.98 10/26/2015 04:08:20 -80.45, -96.47 86.01 1.01 57
10 10/28/2015 08:51:44 -80.51,-168.22 85.14 10/28/2015 08:51:38 -80.52,-168.32 85.13 1.85 6
11 10/30/2015 13:36:04 -80.55, 120.32 84.36 10/30/2015 13:34:54 -80.54, 120.47 84.35 3.00 70




NCC Satellite Simultaneous Nadir Overpasses (SNOs) Prediction Service
